GSAT-8

Last updated on Mon Sep 07 2026 00:02:58 GMT+0000 (Coordinated Universal Time)

1 37605U 11022A 26249.60274171 .00000068 00000+0 00000+0 0 9990 2 37605 2.3348 80.7425 0006031 157.2763 19.7692 1.00273140 54034
UTC large
Height (km)
Speed (km/s)
/
Latitude / Longitude
Inclination (degrees)
Orbital Period (minutes)
Azimuth
Elevation
Range (km)
Doppler Factor

Next 0 passes for location: London (51.5072 / 0.1276)

No passes found over London.
GSAT-8